Hailey, ID

11:13 PM MDT on May 23, 2017 (GMT -0600)
Friedman Memorial

Weather History for KSUN - October, 2013

Change the Weather History Date:

Wednesday, October 16, 2013

  Actual Average Record
Temperature  
Mean Temperature 40 °F -  
Max Temperature 53 °F 58 °F 73 °F (2015)
Min Temperature 28 °F 32 °F 10 °F (1996)
Degree Days  
Heating Degree Days 24    
Moisture  
Dew Point 26 °F    
Average Humidity 67    
Maximum Humidity 87    
Minimum Humidity 33    
Precipitation  
Precipitation 0.00 in - - ()
Sea Level Pressure  
Sea Level Pressure 30.18 in    
Wind  
Wind Speed 8 mph (NW)    
Max Wind Speed 10 mph    
Max Gust Speed -    
Visibility 10 miles    
Events      
Averages and records for this station are not official NWS values.
T = Trace of Precipitation, MM = Missing Value Source: NWS Daily Summary

Daily Weather History Graph

Daily Weather History Graph

Search for Another Location

Airport or City:

Trip Planner

Search our weather history database for the weather conditions in past years. The results will help you decide how hot, cold, wet, or windy it might be!

Date:

Astronomy

Oct. 16, 2013 Rise Set
Actual Time 7:52 AM MDT 6:51 PM MDT
Civil Twilight 7:23 AM MDT 7:20 PM MDT
Nautical Twilight 6:50 AM MDT 7:53 PM MDT
Astronomical Twilight 6:17 AM MDT 8:26 PM MDT
Moon 5:36 PM MDT (10/16) 5:21 AM MDT (10/16)
Length of Visible Light 11h 56m
Length of Day
10h 58m
Waxing Gibbous, 94% of the Moon is Illuminated
Oct 16
Waxing Gibbous
Oct 18
Full
Oct 26
Last Quarter
Nov 3
New
Nov 9
First Quarter

Hourly Weather History & Observations

Time (MDT) Temp. Windchill Dew Point Humidity Pressure Visibility Wind Dir Wind Speed Gust Speed Precip Events Conditions
12:15 AM 33.8 °F 27.0 °F 28.4 °F 81% 30.24 in 10.0 mi NW 8.1 mph - N/A   Clear
12:35 AM 33.8 °F 25.8 °F 28.4 °F 81% 30.23 in 10.0 mi NW 10.4 mph - N/A   Clear
12:55 AM 33.8 °F 26.4 °F 28.4 °F 81% 30.23 in 10.0 mi NW 9.2 mph - N/A   Clear
1:15 AM 33.8 °F 27.0 °F 28.4 °F 81% 30.23 in 10.0 mi NW 8.1 mph - N/A   Clear
1:35 AM 32.0 °F 26.4 °F 28.4 °F 87% 30.23 in 10.0 mi NW 5.8 mph - N/A   Clear
1:55 AM 32.0 °F 26.4 °F 26.6 °F 80% 30.23 in 10.0 mi WNW 5.8 mph - N/A   Clear
2:15 AM 32.0 °F 24.8 °F 26.6 °F 80% 30.23 in 10.0 mi NW 8.1 mph - N/A   Clear
2:35 AM 32.0 °F 24.8 °F 26.6 °F 80% 30.23 in 10.0 mi NW 8.1 mph - N/A   Clear
2:55 AM 32.0 °F 24.8 °F 26.6 °F 80% 30.22 in 10.0 mi NW 8.1 mph - N/A   Clear
3:15 AM 32.0 °F 25.6 °F 26.6 °F 80% 30.21 in 10.0 mi NNW 6.9 mph - N/A   Clear
3:35 AM 32.0 °F 26.4 °F 26.6 °F 80% 30.21 in 10.0 mi WNW 5.8 mph - N/A   Clear
3:55 AM 32.0 °F 27.5 °F 26.6 °F 80% 30.21 in 10.0 mi NW 4.6 mph - N/A   Clear
4:15 AM 30.2 °F 24.3 °F 26.6 °F 86% 30.21 in 10.0 mi NNW 5.8 mph - N/A   Clear
4:35 AM 32.0 °F 25.6 °F 26.6 °F 80% 30.21 in 10.0 mi NW 6.9 mph - N/A   Clear
4:55 AM 30.2 °F 23.4 °F 24.8 °F 80% 30.21 in 10.0 mi NW 6.9 mph - N/A   Clear
5:15 AM 30.2 °F 21.9 °F 24.8 °F 80% 30.20 in 10.0 mi WNW 9.2 mph - N/A   Clear
5:35 AM 30.2 °F 22.6 °F 23.0 °F 75% 30.20 in 10.0 mi NW 8.1 mph - N/A   Clear
5:55 AM 30.2 °F 22.6 °F 23.0 °F 75% 30.20 in 10.0 mi NW 8.1 mph - N/A   Clear
6:15 AM 30.2 °F 23.4 °F 23.0 °F 75% 30.20 in 10.0 mi NW 6.9 mph - N/A   Clear
6:35 AM 30.2 °F 21.9 °F 23.0 °F 75% 30.20 in 10.0 mi NW 9.2 mph - N/A   Clear
6:47 AM 28.4 °F 22.2 °F 21.2 °F 74% 30.20 in 10.0 mi West 5.8 mph - N/A   Clear
6:55 AM 30.2 °F 22.6 °F 23.0 °F 75% 30.20 in 10.0 mi NW 8.1 mph - N/A   Clear
7:43 AM 28.4 °F 20.4 °F 21.2 °F 74% 30.21 in 10.0 mi WNW 8.1 mph - N/A   Partly Cloudy
8:47 AM 28.4 °F 20.4 °F 21.2 °F 74% 30.21 in 10.0 mi WNW 8.1 mph - N/A   Scattered Clouds
9:47 AM 33.8 °F 27.7 °F 21.2 °F 60% 30.21 in 10.0 mi WNW 6.9 mph - N/A   Scattered Clouds
10:47 AM 37.4 °F 34.9 °F 19.4 °F 48% 30.20 in 10.0 mi NW 3.5 mph - N/A   Mostly Cloudy
11:48 AM 42.8 °F 38.6 °F 26.6 °F 53% 30.21 in 10.0 mi ESE 6.9 mph - N/A   Overcast
12:47 PM 44.6 °F 39.7 °F 28.4 °F 53% 30.19 in 10.0 mi ESE 9.2 mph - N/A   Overcast
1:48 PM 46.4 °F 41.9 °F 28.4 °F 50% 30.16 in 10.0 mi ESE 9.2 mph - N/A   Mostly Cloudy
2:47 PM 48.2 °F - 24.8 °F 40% 30.15 in 10.0 mi ESE 10.4 mph - N/A   Scattered Clouds
3:47 PM 51.8 °F - 24.8 °F 35% 30.13 in 10.0 mi ESE 9.2 mph - N/A   Scattered Clouds
4:47 PM 53.6 °F - 24.8 °F 33% 30.11 in 10.0 mi ESE 9.2 mph - N/A   Scattered Clouds
5:47 PM 51.8 °F - 24.8 °F 35% 30.10 in 10.0 mi ESE 9.2 mph - N/A   Mostly Cloudy
6:47 PM 50.0 °F - 23.0 °F 35% 30.09 in 10.0 mi SE 10.4 mph - N/A   Scattered Clouds
7:47 PM 42.8 °F 39.3 °F 26.6 °F 53% 30.10 in 10.0 mi SE 5.8 mph - N/A   Scattered Clouds
8:47 PM 44.6 °F 41.4 °F 24.8 °F 46% 30.12 in 10.0 mi NW 5.8 mph - N/A   Scattered Clouds
9:47 PM 44.6 °F 41.4 °F 26.6 °F 49% 30.12 in 10.0 mi NW 5.8 mph - N/A   Scattered Clouds
10:47 PM 42.8 °F 39.3 °F 28.4 °F 57% 30.12 in 10.0 mi NW 5.8 mph - N/A   Scattered Clouds
11:15 PM 41.0 °F 37.1 °F 28.4 °F 61% 30.12 in 10.0 mi WNW 5.8 mph - N/A   Clear
11:35 PM 39.2 °F 37.0 °F 28.4 °F 65% 30.12 in 10.0 mi NW 3.5 mph - N/A   Clear
11:55 PM 37.4 °F 32.8 °F 26.6 °F 65% 30.12 in 10.0 mi WNW 5.8 mph - N/A   Clear